DeLand, FL

4:08 PM EDT on September 25, 2016 (GMT -0400)
De Land Municipal-Taylor

Weather History for KDED - November, 2012

Change the Weather History Date:

Monday, November 5, 2012

  Actual Average Record
Temperature  
Mean Temperature 70 °F -  
Max Temperature 78 °F 77 °F 86 °F (2015)
Min Temperature 62 °F 55 °F 60 °F (2014)
Cooling Degree Days 5    
Growing Degree Days 20 (Base 50)    
Moisture  
Dew Point 60 °F    
Average Humidity 79    
Maximum Humidity 100    
Minimum Humidity 44    
Precipitation  
Precipitation 0.00 in - - ()
Sea Level Pressure  
Sea Level Pressure 29.99 in    
Wind  
Wind Speed 3 mph ()    
Max Wind Speed 12 mph    
Max Gust Speed -    
Visibility 7.0 miles    
Events      
Averages and records for this station are not official NWS values.
T = Trace of Precipitation, MM = Missing Value Source: Averaged Metar Reports

Daily Weather History Graph

Daily Weather History Graph

Search for Another Location

Airport or City:

Trip Planner

Search our weather history database for the weather conditions in past years. The results will help you decide how hot, cold, wet, or windy it might be!

Date:

Astronomy

Nov. 05, 2012 Rise Set
Actual Time 6:41 AM EST 5:36 PM EST
Civil Twilight 6:16 AM EST 6:00 PM EST
Nautical Twilight 5:48 AM EST 6:28 PM EST
Astronomical Twilight 5:20 AM EST 6:56 PM EST
Moon 11:11 PM EST (11/5) 11:58 AM EST (11/5)
Length of Visible Light 11h 44m
Length of Day
10h 54m
Waning Gibbous, 63% of the Moon is Illuminated
Nov 5
Waning Gibbous
Nov 6
Last Quarter
Nov 13
New
Nov 20
First Quarter
Nov 28
Full

Hourly Weather History & Observations

Time (EST) Temp. Dew Point Humidity Pressure Visibility Wind Dir Wind Speed Gust Speed Precip Events Conditions
12:15 AM 62.6 °F 59.0 °F 88% 30.02 in 8.0 mi Calm Calm - N/A   Clear
12:35 AM 62.6 °F 60.8 °F 94% 30.02 in 7.0 mi Calm Calm - N/A   Clear
12:55 AM 62.6 °F 60.8 °F 94% 30.01 in 6.0 mi Calm Calm - N/A   Clear
1:15 AM 62.6 °F 60.8 °F 94% 30.01 in 5.0 mi Calm Calm - N/A   Clear
1:35 AM 62.6 °F 60.8 °F 94% 30.01 in 5.0 mi Calm Calm - N/A   Clear
1:55 AM 62.6 °F 60.8 °F 94% 30.00 in 5.0 mi Calm Calm - N/A   Clear
2:15 AM 62.6 °F 60.8 °F 94% 30.00 in 5.0 mi Calm Calm - N/A   Clear
2:35 AM 62.6 °F 60.8 °F 94% 29.99 in 4.0 mi Calm Calm - N/A   Clear
2:55 AM 62.6 °F 60.8 °F 94% 29.99 in 5.0 mi Calm Calm - N/A   Clear
3:15 AM 62.6 °F 60.8 °F 94% 29.99 in 3.0 mi Calm Calm - N/A   Clear
3:35 AM 62.6 °F 60.8 °F 94% 29.99 in 3.0 mi WSW 3.5 mph - N/A   Clear
3:55 AM 62.6 °F 62.6 °F 100% 29.99 in 3.0 mi WSW 4.6 mph - N/A   Clear
4:15 AM 62.6 °F 60.8 °F 94% 29.99 in 3.0 mi WSW 3.5 mph - N/A   Clear
4:35 AM 62.6 °F 60.8 °F 94% 29.99 in 2.5 mi Calm Calm - N/A   Scattered Clouds
4:55 AM 62.6 °F 62.6 °F 100% 29.99 in 2.5 mi Calm Calm - N/A   Overcast
5:15 AM 62.6 °F 62.6 °F 100% 29.99 in 0.2 mi West 4.6 mph - N/A   Overcast
5:35 AM 62.6 °F 62.6 °F 100% 30.00 in 0.2 mi West 4.6 mph - N/A   Overcast
5:55 AM 62.6 °F 62.6 °F 100% 30.00 in 0.2 mi Calm Calm - N/A   Overcast
6:15 AM 64.4 °F 62.6 °F 94% 30.00 in 0.2 mi West 5.8 mph - N/A   Overcast
6:35 AM 64.4 °F 62.6 °F 94% 30.00 in 0.2 mi West 3.5 mph - N/A   Overcast
6:55 AM 64.4 °F 62.6 °F 94% 30.00 in 0.5 mi WSW 3.5 mph - N/A   Overcast
7:15 AM 64.4 °F 62.6 °F 94% 30.00 in 0.5 mi West 4.6 mph - N/A   Overcast
7:35 AM 64.4 °F 64.4 °F 100% 30.01 in 0.5 mi WNW 4.6 mph - N/A   Overcast
7:55 AM 64.4 °F 64.4 °F 100% 30.01 in 3.0 mi West 5.8 mph - N/A   Overcast
8:15 AM 66.2 °F 64.4 °F 94% 30.01 in 4.0 mi West 6.9 mph - N/A   Overcast
8:35 AM 66.2 °F 66.2 °F 100% 30.01 in 5.0 mi WNW 5.8 mph - N/A   Overcast
8:55 AM 66.2 °F 66.2 °F 100% 30.02 in 5.0 mi WNW 5.8 mph - N/A   Overcast
9:15 AM 68.0 °F 64.4 °F 88% 30.02 in 7.0 mi NW 9.2 mph - N/A   Mostly Cloudy
9:35 AM 69.8 °F 64.4 °F 83% 30.01 in 8.0 mi NW 8.1 mph - N/A   Mostly Cloudy
9:55 AM 69.8 °F 64.4 °F 83% 30.01 in 9.0 mi Calm Calm - N/A   Mostly Cloudy
10:15 AM 71.6 °F 64.4 °F 78% 30.01 in 10.0 mi North 4.6 mph - N/A   Mostly Cloudy
10:35 AM 73.4 °F 62.6 °F 69% 30.01 in 10.0 mi NNW 4.6 mph - N/A   Clear
10:55 AM 73.4 °F 64.4 °F 73% 30.01 in 10.0 mi Calm Calm - N/A   Partly Cloudy
11:15 AM 73.4 °F 62.6 °F 69% 30.00 in 10.0 mi WNW 3.5 mph - N/A   Partly Cloudy
11:35 AM 75.2 °F 60.8 °F 61% 30.00 in 9.0 mi NW 3.5 mph - N/A   Partly Cloudy
11:55 AM 77.0 °F 60.8 °F 57% 29.99 in 10.0 mi West 9.2 mph - N/A   Partly Cloudy
12:15 PM 77.0 °F 57.2 °F 50% 29.98 in 9.0 mi NW 5.8 mph - N/A   Partly Cloudy
12:35 PM 78.8 °F 55.4 °F 44% 29.97 in 10.0 mi WNW 9.2 mph - N/A   Clear
12:55 PM 78.8 °F 55.4 °F 44% 29.96 in 9.0 mi WNW 9.2 mph - N/A   Clear
1:15 PM 78.8 °F 57.2 °F 47% 29.96 in 10.0 mi NW 11.5 mph - N/A   Clear
1:35 PM 78.8 °F 57.2 °F 47% 29.95 in 10.0 mi WNW 6.9 mph - N/A   Partly Cloudy
1:55 PM 78.8 °F 57.2 °F 47% 29.94 in 10.0 mi WNW 9.2 mph - N/A   Partly Cloudy
2:15 PM 78.8 °F 57.2 °F 47% 29.94 in 10.0 mi West 5.8 mph - N/A   Clear
2:35 PM 78.8 °F 57.2 °F 47% 29.93 in 10.0 mi NW 5.8 mph - N/A   Clear
2:55 PM 78.8 °F 57.2 °F 47% 29.93 in 10.0 mi WNW 8.1 mph - N/A   Scattered Clouds
3:15 PM 78.8 °F 57.2 °F 47% 29.93 in 10.0 mi NNW 8.1 mph - N/A   Partly Cloudy
3:35 PM 77.0 °F 62.6 °F 61% 29.94 in 9.0 mi ENE 10.4 mph - N/A   Scattered Clouds
3:55 PM 75.2 °F 62.6 °F 65% 29.94 in 10.0 mi NE 10.4 mph - N/A   Partly Cloudy
4:15 PM 73.4 °F 60.8 °F 65% 29.94 in 9.0 mi NE 11.5 mph - N/A   Clear
4:55 PM 71.6 °F 60.8 °F 69% 29.95 in 9.0 mi ENE 9.2 mph - N/A   Clear
5:15 PM 69.8 °F 60.8 °F 73% 29.96 in 10.0 mi ENE 8.1 mph - N/A   Clear
5:35 PM 68.0 °F 59.0 °F 73% 29.97 in 10.0 mi NE 6.9 mph - N/A   Clear
5:55 PM 66.2 °F 59.0 °F 78% 29.97 in 9.0 mi NE 3.5 mph - N/A   Clear
6:15 PM 66.2 °F 57.2 °F 73% 29.98 in 8.0 mi Calm Calm - N/A   Clear
6:35 PM 66.2 °F 57.2 °F 73% 29.98 in 9.0 mi Calm Calm - N/A   Clear
6:55 PM 64.4 °F 57.2 °F 77% 29.98 in 9.0 mi Calm Calm - N/A   Clear
7:15 PM 64.4 °F 57.2 °F 77% 29.99 in 9.0 mi Calm Calm - N/A   Clear
7:55 PM 64.4 °F 57.2 °F 77% 29.99 in 10.0 mi Calm Calm - N/A   Clear
8:15 PM 62.6 °F 55.4 °F 77% 30.00 in 9.0 mi Calm Calm - N/A   Clear
8:35 PM 62.6 °F 55.4 °F 77% 30.00 in 10.0 mi Calm Calm - N/A   Clear
8:55 PM 62.6 °F 55.4 °F 77% 30.01 in 9.0 mi Calm Calm - N/A   Clear
9:15 PM 62.6 °F 55.4 °F 77% 30.01 in 9.0 mi Calm Calm - N/A   Clear
9:35 PM 62.6 °F 55.4 °F 77% 30.01 in 9.0 mi Calm Calm - N/A   Scattered Clouds
9:55 PM 62.6 °F 57.2 °F 82% 30.00 in 10.0 mi Calm Calm - N/A   Mostly Cloudy
10:15 PM 62.6 °F 57.2 °F 82% 30.00 in 9.0 mi Calm Calm - N/A   Overcast
10:35 PM 62.6 °F 57.2 °F 82% 30.00 in 9.0 mi Calm Calm - N/A   Overcast
11:15 PM 64.4 °F 55.4 °F 73% 29.98 in 10.0 mi NNE 4.6 mph - N/A   Mostly Cloudy
11:35 PM 62.6 °F 55.4 °F 77% 29.96 in 9.0 mi Calm Calm - N/A   Mostly Cloudy
11:55 PM 62.6 °F 55.4 °F 77% 29.96 in 9.0 mi Calm Calm - N/A   Scattered Clouds